TimeCDT,TemperatureF,Dew PointF,Humidity,Sea Level PressureIn,VisibilityMPH,Wind Direction,Wind SpeedMPH,Gust SpeedMPH,PrecipitationIn,Events,Conditions,WindDirDegrees,DateUTC
12:13 AM,62.2,56.5,81,29.87,10.0,Calm,Calm,-,N/A,,Light Drizzle,0,2013-05-17 05:13:00
12:34 AM,62.2,56.5,81,29.87,10.0,Calm,Calm,-,N/A,,Overcast,0,2013-05-17 05:34:00
12:53 AM,61.7,57.4,86,29.87,10.0,Calm,Calm,-,N/A,Rain,Light Rain,0,2013-05-17 05:53:00
1:13 AM,61.3,58.1,89,29.88,5.0,Calm,Calm,-,0.02,Rain,Rain,0,2013-05-17 06:13:00
1:34 AM,60.4,58.5,93,29.89,5.0,Calm,Calm,-,0.08,Rain,Rain,0,2013-05-17 06:34:00
1:54 AM,60.1,58.6,95,29.88,4.0,Calm,Calm,-,0.13,Rain,Rain,0,2013-05-17 06:54:00
2:14 AM,60.4,59.0,95,29.86,5.0,Calm,Calm,-,N/A,,Light Drizzle,0,2013-05-17 07:14:00
2:33 AM,60.3,59.0,96,29.87,5.0,Calm,Calm,-,N/A,Rain,Light Rain,0,2013-05-17 07:33:00
2:54 AM,60.4,59.0,95,29.86,5.0,Calm,Calm,-,N/A,,Overcast,0,2013-05-17 07:54:00
3:13 AM,60.3,59.0,96,29.86,5.0,Calm,Calm,-,N/A,,Mostly Cloudy,0,2013-05-17 08:13:00
3:33 AM,59.9,58.6,96,29.86,3.0,Calm,Calm,-,N/A,,Mostly Cloudy,0,2013-05-17 08:33:00
3:53 AM,60.3,59.2,96,29.86,5.0,Calm,Calm,-,N/A,,Overcast,0,2013-05-17 08:53:00
4:13 AM,60.4,59.0,95,29.86,5.0,Calm,Calm,-,N/A,,Overcast,0,2013-05-17 09:13:00
4:33 AM,60.1,59.0,96,29.86,4.0,Calm,Calm,-,N/A,,Light Drizzle,0,2013-05-17 09:33:00
4:53 AM,60.3,59.0,96,29.86,4.0,Calm,Calm,-,N/A,,Mostly Cloudy,0,2013-05-17 09:53:00
5:13 AM,60.3,59.0,96,29.86,4.0,Calm,Calm,-,N/A,,Mostly Cloudy,0,2013-05-17 10:13:00
5:33 AM,60.8,59.4,95,29.86,3.0,Calm,Calm,-,N/A,,Overcast,0,2013-05-17 10:33:00
5:53 AM,61.0,59.9,96,29.87,3.0,Calm,Calm,-,N/A,,Overcast,0,2013-05-17 10:53:00
6:13 AM,61.2,59.9,96,29.87,3.0,Calm,Calm,-,N/A,,Overcast,0,2013-05-17 11:13:00
6:34 AM,61.3,59.9,95,29.87,4.0,Calm,Calm,-,N/A,,Overcast,0,2013-05-17 11:34:00
7:14 AM,61.9,60.4,95,29.88,5.0,Calm,Calm,-,N/A,,Overcast,0,2013-05-17 12:14:00
7:33 AM,62.1,60.6,95,29.89,5.0,Calm,Calm,-,N/A,,Overcast,0,2013-05-17 12:33:00
7:54 AM,62.2,60.8,95,29.89,5.0,Calm,Calm,-,N/A,,Overcast,0,2013-05-17 12:54:00
8:13 AM,62.6,60.8,94,29.89,7.0,Calm,Calm,-,N/A,,Overcast,0,2013-05-17 13:13:00
8:34 AM,62.6,60.8,94,29.90,7.0,Calm,Calm,-,N/A,,Overcast,0,2013-05-17 13:34:00
8:54 AM,63.0,61.2,94,29.90,7.0,Calm,Calm,-,N/A,,Overcast,0,2013-05-17 13:54:00
9:13 AM,63.9,61.9,93,29.90,10.0,Calm,Calm,-,N/A,,Overcast,0,2013-05-17 14:13:00
9:34 AM,64.6,61.9,91,29.89,10.0,Calm,Calm,-,N/A,,Overcast,0,2013-05-17 14:34:00
9:53 AM,64.8,62.2,92,29.89,10.0,Calm,Calm,-,N/A,,Overcast,0,2013-05-17 14:53:00
10:13 AM,66.2,62.6,88,29.89,10.0,Calm,Calm,-,N/A,,Overcast,0,2013-05-17 15:13:00
10:34 AM,68.4,63.7,85,29.89,10.0,SSE,6.9,16.1,N/A,,Overcast,150,2013-05-17 15:34:00
10:53 AM,69.3,63.9,83,29.89,10.0,SSE,12.7,19.6,N/A,,Overcast,160,2013-05-17 15:53:00
11:13 AM,70.3,64.2,81,29.89,10.0,SSE,10.4,20.7,N/A,,Overcast,150,2013-05-17 16:13:00
11:33 AM,70.7,64.2,80,29.89,10.0,SSE,11.5,17.3,N/A,,Overcast,150,2013-05-17 16:33:00
11:54 AM,72.5,64.6,76,29.89,10.0,SSE,12.7,-,N/A,,Overcast,150,2013-05-17 16:54:00
12:13 PM,72.5,64.6,76,29.88,10.0,Calm,Calm,-,N/A,,Overcast,0,2013-05-17 17:13:00
12:33 PM,72.5,64.8,77,29.88,10.0,SSE,10.4,-,N/A,,Overcast,150,2013-05-17 17:33:00
12:53 PM,72.1,64.8,78,29.88,10.0,Calm,Calm,-,N/A,,Overcast,0,2013-05-17 17:53:00
1:13 PM,74.1,65.7,75,29.87,10.0,Calm,Calm,-,N/A,,Overcast,0,2013-05-17 18:13:00
1:33 PM,75.0,65.8,73,29.87,10.0,SSE,5.8,16.1,N/A,,Overcast,150,2013-05-17 18:33:00
2:14 PM,73.0,65.5,77,29.86,10.0,SE,10.4,17.3,N/A,Thunderstorm,Thunderstorm,130,2013-05-17 19:14:00
2:33 PM,75.9,66.7,73,29.86,10.0,ESE,10.4,-,N/A,Thunderstorm,Thunderstorm,110,2013-05-17 19:33:00
2:53 PM,75.7,66.9,74,29.85,10.0,South,9.2,-,N/A,Thunderstorm,Thunderstorm,170,2013-05-17 19:53:00
3:14 PM,76.5,67.1,73,29.85,10.0,SE,12.7,20.7,N/A,,Overcast,130,2013-05-17 20:14:00
3:34 PM,73.2,65.7,77,29.85,10.0,East,12.7,-,N/A,,Overcast,100,2013-05-17 20:34:00
3:53 PM,72.0,65.3,79,29.85,10.0,ESE,9.2,19.6,N/A,Thunderstorm,Thunderstorm,110,2013-05-17 20:53:00
4:13 PM,73.0,65.1,76,29.85,10.0,East,16.1,-,N/A,Thunderstorm,Mostly Cloudy,100,2013-05-17 21:13:00
4:33 PM,71.2,64.8,80,29.85,10.0,ESE,15.0,24.2,N/A,Thunderstorm,Mostly Cloudy,110,2013-05-17 21:33:00
4:54 PM,70.0,63.3,79,29.86,10.0,ESE,17.3,24.2,N/A,Thunderstorm,Mostly Cloudy,120,2013-05-17 21:54:00
5:14 PM,71.6,64.4,78,29.85,10.0,ESE,18.4,-,N/A,Thunderstorm,Mostly Cloudy,120,2013-05-17 22:14:00
5:33 PM,72.7,65.1,77,29.85,10.0,SE,18.4,26.5,N/A,Thunderstorm,Scattered Clouds,130,2013-05-17 22:33:00
5:53 PM,73.6,64.8,74,29.85,10.0,SE,15.0,19.6,N/A,,Clear,130,2013-05-17 22:53:00
6:13 PM,75.2,65.7,72,29.85,10.0,ESE,17.3,23.0,N/A,,Clear,120,2013-05-17 23:13:00
6:33 PM,73.0,66.4,80,29.84,7.0,East,12.7,23.0,N/A,,Clear,100,2013-05-17 23:33:00
6:54 PM,72.1,65.7,80,29.85,7.0,ESE,16.1,24.2,N/A,,Clear,120,2013-05-17 23:54:00
7:14 PM,71.6,65.1,80,29.84,7.0,SE,10.4,21.9,N/A,,Clear,130,2013-05-18 00:14:00
7:33 PM,71.8,65.3,80,29.84,7.0,SE,15.0,21.9,N/A,,Clear,130,2013-05-18 00:33:00
7:54 PM,71.2,65.8,83,29.84,7.0,SE,13.8,19.6,N/A,,Clear,130,2013-05-18 00:54:00
8:13 PM,70.7,65.5,83,29.85,7.0,SE,11.5,17.3,N/A,,Scattered Clouds,130,2013-05-18 01:13:00
8:34 PM,69.6,64.6,84,29.85,10.0,ESE,4.6,-,N/A,,Clear,120,2013-05-18 01:34:00
8:54 PM,68.0,64.6,89,29.86,5.0,Calm,Calm,-,N/A,,Clear,0,2013-05-18 01:54:00
9:14 PM,66.6,64.6,93,29.87,3.0,Calm,Calm,-,N/A,,Clear,0,2013-05-18 02:14:00
9:33 PM,66.2,64.4,94,29.88,3.0,Calm,Calm,-,N/A,,Mist,0,2013-05-18 02:33:00
9:53 PM,66.2,64.4,94,29.87,3.0,ESE,4.6,-,N/A,,Mostly Cloudy,110,2013-05-18 02:53:00
10:14 PM,65.8,64.0,94,29.87,3.0,ESE,11.5,16.1,N/A,,Overcast,120,2013-05-18 03:14:00
10:34 PM,65.5,63.7,94,29.88,4.0,ESE,3.5,-,N/A,,Overcast,120,2013-05-18 03:34:00
10:53 PM,65.3,63.5,94,29.88,3.0,ESE,11.5,16.1,N/A,,Overcast,120,2013-05-18 03:53:00
11:34 PM,64.8,63.1,94,29.87,3.0,Calm,Calm,-,N/A,,Overcast,0,2013-05-18 04:34:00
11:53 PM,64.6,63.1,95,29.87,3.0,Calm,Calm,-,N/A,,Mostly Cloudy,0,2013-05-18 04:53:00